Погода в Унице

Россия / Республика Карелия     62°35′48″N   34°27′42″E
темп.,
°C
ветер,
м/с
пор.,
м/с
влажн.,
%
обл.,
%
осадки,
мм/ч
давл.,
гПа
погр.,
м
21 апреля, ср
ср2100:00+3юв2678100 0.0 1020104
03:00+2юв277999 0.0 1018142
06:00+1вюв2478100 0.0 101695
09:00+5в3563100 0.0 1013320
12:00+6в4757100 0.0 1009693
15:00+2всв41196100 2.8 1007642
18:00+2всв3799100 2.1 1004330
21:00+2всв2699100 3.1 1001365
22 апреля, чт
чт2200:00+1ю2697100 1.3 1000237
03:00+1ююз2597100 1.4 1001497
06:00+1ююз2698100 0.2 1001300
09:00+2ююз3796100 0.4 1002432
12:00+2ююз3795100 0.4 1004557
15:00+3юз4793100 0.5 1005608
18:00+3юз3997100 0.1 1007645
21:00+4ююв2393100 0.1 100883
23 апреля, пт
пт2300:00+2юв269716 0.0 1008112
03:00+2вюв279690 0.0 1008133
06:00+2юв31095100 0.0 1007296
09:00+4юв3893100 0.2 1007259
12:00+4юв2596100 1.8 1007233
15:00+5ю2593100 4.6 1008525
18:00+6ююв3589100 0.3 1008423
21:00+4зюз3793100 1.1 1009618
24 апреля, сб
сб2400:00+2ююв2594100 0.0 1010154
03:00+2юв2796100 0.0 1010221
06:00+2вюв2697100 0.0 1009188
09:00+4вюв2492100 0.2 1009314
12:00+2св3897100 3.9 1008455
15:00+2с3897100 6.3 1006314
18:00+5ссв2596100 0.1 1004203
21:00+5в1499100 0.8 1003109
25 апреля, вс
вс2500:00+7вюв4148671 0.2 1002526
03:00+6в4128835 0.2 1001403
06:00+5всв4119147 0.0 1001409
09:00+8всв497782 0.0 1001625
12:00+8всв4977100 0.0 1001647
15:00+9всв4768100 0.2 1001990
18:00+9всв2672100 0.3 1001985
21:00+6ссв248498 0.4 100177